Find Starlink 32291

NORAD ID: 62442 Int'l Des: 2024-251 Owner: SPXS Country: US Constellation: starlink operational
LEOCIRCULAR

Live Position

Loading 3D Globe...

About Starlink 32291

Description loading...

Upcoming Passes

Passes for default location (London). Set your location on the main map for personalized predictions.

Altitude History

Loading altitude history...

Two-Line Element Set

1 62442U 24251L 26122.21539694 .00025137 00000-0 85698-3 0 9991
2 62442 53.1583 86.6678 0001156 80.5661 279.5471 15.30236381 75835
Epoch: May 2, 2026 • Age: 13 hours

Current Status

Altitude 479.1 km
Velocity 7.63 km/s
Sub-Earth Point 45.29°N, 81.33°E
Launch Date Dec 29, 2024
Age 1.3 years
Type internet

Technical Details

Classification Payload
Mass 730.00 kg
Dry Mass 700.00 kg
Total Mass 730.00 kg
Length 0.30 m
Diameter 4.10 m
Span 29.00 m
Shape Box + pan
Manufacturer SPXS
Bus Type Starlink V2M
Phase Status In Orbit
Owner/State SPXS/US

Most Searched